• MPC Preparation (Info)

  • MPEC 2022-V58 : 2022 UM28

    The following Minor Planet Electronic Circular may be linked-to from your own Web pages, but must not otherwise be redistributed electronically.

    A form allowing access to any MPEC is at the bottom of this page.


    Read MPEC 2022-V57 Read MPEC 2022-V59


    M.P.E.C. 2022-V58                              Issued 2022 November 2, 14:32 UT
    
         The Minor Planet Electronic Circulars contain information on unusual
             minor planets, routine data on comets and natural satellites,
             and occasional editorial announcements.  They are published
        on behalf of Division F of the International Astronomical Union by the
              Minor Planet Center, Smithsonian Astrophysical Observatory,
                              Cambridge, MA 02138, U.S.A.
    			  
                 Prepared using the Tamkin Foundation Computer Network
    
                                  MPC@CFA.HARVARD.EDU
                URL https://www.minorplanetcenter.net/    ISSN 1523-6714
    
                                    2022 UM28                                
    
    
    Observations:
         K22U28M* C2022 10 30.39965905 30 53.086-07 48 23.44         20.87GVEV058G96
         K22U28M  C2022 10 30.40484805 30 48.769-07 48 16.63         20.84GVEV058G96
         K22U28M  C2022 10 30.41003705 30 44.478-07 48 11.02         20.78GVEV058G96
         K22U28M KC2022 10 30.46491405 29 58.840-07 47 05.00         20.85GVEV058I52
         K22U28M KC2022 10 30.46711805 29 57.040-07 47 03.10         20.95GVEV058I52
         K22U28M KC2022 10 30.46932305 29 55.200-07 47 00.20         21.25GVEV058I52
         K22U28M KC2022 10 31.09847205 21 20.95 -07 33 55.8          20.5 G EV058L01
         K22U28M KC2022 10 31.10032805 21 19.34 -07 33 53.0          20.5 G EV058L01
         K22U28M KC2022 10 31.10267505 21 17.39 -07 33 49.7          20.5 G EV058L01
         K22U28M KC2022 10 31.37729605 17 28.122-07 27 20.84         20.70GVEV058I52
         K22U28M KC2022 10 31.37827005 17 27.240-07 27 19.40         20.59GVEV058I52
         K22U28M KC2022 10 31.37925505 17 26.387-07 27 18.07         20.71GVEV058I52
         K22U28M  C2022 10 31.55300505 14 56.384-07 22 56.98               VEV058F51
         K22U28M  C2022 10 31.56643305 14 44.308-07 22 37.55               VEV058F51
         K22U28M  C2022 10 31.58034805 14 31.933-07 22 17.61               VEV058F51
         K22U28M  C2022 10 31.59454505 14 19.201-07 21 56.77         20.63GVEV058F51
         K22U28M  C2022 11 02.49066004 45 44.074-06 29 28.50         20.67wUEV058F51
         K22U28M  C2022 11 02.50261804 45 32.232-06 29 06.26         20.66wUEV058F51
         K22U28M  C2022 11 02.51462704 45 20.422-06 28 43.58         20.60wUEV058F51
         K22U28M  C2022 11 02.52661504 45 08.594-06 28 21.02         20.42wUEV058F51
    
    Observer details:
    F51 Pan-STARRS 1, Haleakala.  Observers J. Bulger, K. Chambers, T. Lowe, A.
        Schultz, I. Smith.  Measurers S. Chastel, J. Fairlamb, M. Huber, Y.
        Ramanjooloo, R. Wainscoat, R. Weryk, K. Chambers, T. de Boer, H. Gao,
        C.-C. Lin, E. Magnier.  1.8-m Ritchey-Chretien + CCD.
    G96 Mt. Lemmon Survey.  Observer D. C. Fuls.  Measurers E. J. Christensen, D.
        Fay, J. B. Fazekas, D. C. Fuls, A. R. Gibbs, A. D. Grauer, H. Groeller, J.
        K. Hogan, R. A. Kowalski, S. M. Larson, G. J. Leonard, D. Rankin, R. L.
        Seaman, A. Serrano, F. C. Shelly, K. W. Wierzchos.  1.5-m reflector + 10K
        CCD.
    I52 Steward Observatory, Mt. Lemmon Station.  Observer R. A. Kowalski.
        Measurers E. J. Christensen, D. Fay, J. B. Fazekas, D. C. Fuls, A. R.
        Gibbs, A. D. Grauer, H. Groeller, J. K. Hogan, R. A. Kowalski, S. M.
        Larson, G. J. Leonard, D. Rankin, R. L. Seaman, A. Serrano, F. C. Shelly,
        K. W. Wierzchos.  1.0-m prime focus + CCD.
    L01 Visnjan Observatory, Tican.  Observers K. Korlevic, L. Poropat.  Measurer
        K. Korlevic.  1.0-m f/2.9 reflector + CCD.
    
    Orbital elements:
    2022 UM28                                                Earth MOID = 0.0788 AU
    Epoch 2022 Aug. 9.0 TT = JDT 2459800.5                  Veres                   
    M  11.99743              (2000.0)            P               Q                  
    n   1.61859840     Peri.  180.30066     -0.60369442     +0.77806614             
    a   0.7184171      Node    52.57164     -0.73097393     -0.45328760             
    e   0.5124429      Incl.   12.63352     -0.31816689     -0.43490624             
    P   0.61           H   24.16          G   0.15           U   8                  
    Residuals in seconds of arc
    221030 G96  0.1-  0.3-    221031 L01  0.7-  0.1+    221031 F51  0.2+  0.0
    221030 G96  0.3-  0.4+    221031 L01  0.4+  0.3+    221031 F51  0.2-  0.1+
    221030 G96  0.1-  0.1-    221031 I52  0.4+  0.0     221102 F51  0.1+  0.1+
    221030 I52  0.2-  0.2+    221031 I52  0.0   0.1+    221102 F51  0.6-  0.1-
    221030 I52  0.3+  0.6-    221031 I52  0.2+  0.0     221102 F51  0.0   0.0
    221030 I52  0.2+  0.4-    221031 F51  0.0   0.2+    221102 F51  0.2+  0.0
    221031 L01  0.6-  0.2-    221031 F51  1.0-  0.3+
    
    Ephemeris:
    2022 UM28                a,e,i = 0.72, 0.51, 13                  q = 0.3503
    Date    TT    R. A. (2000) Decl.     Delta      r    Elong.  Phase     V
    2022 10 03    08 11 06.2 -09 10 22   0.2299  0.9299    65.6   101.3    24.5
    ...
    2022 10 18    07 17 42.4 -09 15 31   0.1547  1.0124    91.5    79.7    22.9
    ...
    2022 10 26    06 20 56.8 -08 46 55   0.1168  1.0436   111.9    62.1    21.8
    ...
    2022 11 01    05 08 28.8 -07 11 12   0.09588 1.0613   133.8    42.5    20.8
    2022 11 02    04 53 24.2 -06 43 41   0.09357 1.0638   138.0    38.6    20.7
    2022 11 03    04 37 35.7 -06 12 20   0.09172 1.0662   142.3    34.7    20.5
    ...
    2022 11 09    02 56 37.1 -02 01 46   0.09140 1.0776   161.3    17.2    20.0
    ...
    2022 11 17    01 12 02.8 +03 17 54   0.1177  1.0856   143.4    32.9    21.1
    ...
    2022 12 02    23 52 50.2 +08 19 19   0.2028  1.0785   112.0    58.0    22.9
    
    M. P. C. Staff               (C) Copyright 2022 MPC           M.P.E.C. 2022-V58
    


    Read MPEC 2022-V57 Read MPEC 2022-V59


    MPEC number:

    Enter an MPEC number in one of the following forms:

    • 1997-B01 (the full form)
    • J97B01 (the packed version of the full form)
    • B01 (the abbreviated form)